Temperature
16 17 17 17 14 11 12 13 12 12 11 11 11 11 10 10 11 11 11 11 11 11 11 11 11 11 11 12 12 12 12 12 12 12 12 13 13 13 13 13 13 13 13 14 14 14 14 14 14
16 16 17 16 12 12 12 12 12 12 11 11 11 10 10 9 10 10 10 11 11 11 11 11 11 11 11 11 12 12 12 12 12 12 12 12 12 12 13 13 13 13 13 13 13 14 14 14 14
16 16 17 11 11 12 13 12 11 10 11 11 9 9 9 9 9 10 10 10 10 11 11 11 11 11 11 11 11 11 11 12 12 12 12 12 12 12 12 12 12 12 13 13 13 13 13 13 13
16 16 15 11 12 11 12 12 10 10 10 10 9 8 8 9 9 10 10 10 10 10 10 11 10 11 10 11 11 11 11 11 11 11 12 12 12 12 12 12 12 12 12 12 13 13 13 13 13
16 16 11 10 11 11 10 11 11 10 9 9 9 7 8 9 9 10 10 10 10 10 10 10 10 10 10 10 11 11 11 11 11 11 11 11 11 12 12 12 12 12 12 12 12 12 12 12 12
16 11 10 11 11 11 10 11 11 9 9 8 8 7 8 9 9 9 9 9 9 10 10 10 10 10 10 10 10 11 11 10 11 11 11 11 11 11 11 11 11 11 11 11 12 12 12 12 12
14 9 10 11 11 11 11 11 10 8 8 8 9 7 7 9 9 9 9 9 9 9 9 9 10 10 10 10 10 10 10 10 10 10 10 10 11 11 11 11 11 11 11 11 11 11 12 12 12
14 9 10 10 10 11 11 10 10 9 8 9 9 8 7 9 9 8 8 9 9 9 9 9 9 9 10 10 10 10 10 10 10 10 10 10 10 10 10 10 10 10 10 11 11 11 11 11 11
14 9 10 10 10 11 10 9 9 9 8 8 8 8 9 8 8 8 8 8 8 9 9 9 9 9 9 9 9 9 9 9 9 10 10 10 10 10 10 10 10 10 10 10 10 10 11 11 11
12 9 10 10 10 10 9 9 8 8 7 7 7 8 8 8 8 8 8 8 8 8 8 8 8 9 9 9 9 9 9 9 9 9 9 9 9 9 9 9 9 9 9 10 10 10 10 10 10
10 9 10 10 10 10 9 8 8 8 7 7 8 9 8 8 8 8 8 8 8 8 8 8 8 8 8 8 8 8 8 8 8 8 8 8 8 8 9 9 9 9 9 9 9 9 9 9 10
9 8 9 10 10 10 9 8 7 7 8 9 9 9 8 8 8 8 8 8 8 7 7 7 7 7 8 8 8 8 8 8 8 8 8 8 8 8 8 8 8 8 8 8 8 9 9 9 9
9 8 9 9 9 9 8 7 7 7 8 9 8 8 8 8 8 7 7 7 7 7 7 7 7 7 7 7 7 7 7 7 7 7 7 7 7 7 7 7 7 7 7 7 8 8 8 8 8
8 8 8 8 8 8 7 6 6 6 7 7 7 7 7 7 7 7 7 7 7 7 7 6 6 6 6 6 6 6 7 6 6 6 6 6 6 6 6 6 6 6 6 7 7 7 7 7 8
9 8 8 8 8 7 7 7 5 7 7 6 6 7 6 7 7 7 7 7 6 6 6 6 6 6 6 6 6 6 6 6 6 6 6 6 6 6 6 6 6 6 6 6 6 6 6 6 7
8 8 8 8 7 7 8 8 7 7 6 5 5 5 6 6 6 6 6 6 6 6 6 5 5 5 5 5 5 5 5 5 5 5 5 5 5 5 5 5 5 5 5 5 5 5 5 6 6
8 8 8 8 7 6 6 6 6 5 5 4 4 5 5 5 5 5 5 5 5 5 5 5 5 5 5 4 4 4 4 4 4 4 4 4 4 4 4 4 4 4 4 4 4 4 5 5 5
8 7 8 7 6 5 5 5 4 4 4 4 4 4 4 4 5 5 5 5 5 5 4 4 4 4 4 4 4 4 4 3 3 3 3 3 3 3 3 3 3 3 4 4 4 4 4 4 4
8 8 7 7 6 5 4 4 5 4 3 3 3 3 3 4 5 4 4 4 4 4 4 4 4 4 3 3 3 3 3 3 3 3 3 3 3 3 2 2 3 3 3 3 3 3 3 3 3
7 7 6 6 5 5 4 4 4 3 3 3 3 3 3 3 4 4 4 4 4 4 4 4 3 3 3 3 3 3 3 2 2 2 2 2 2 2 2 2 2 2 2 2 2 2 2 2 2
6 6 6 6 5 5 4 5 4 4 3 3 3 3 3 3 3 4 4 3 3 3 3 3 3 3 3 2 2 2 2 2 2 2 2 1 1 1 1 1 1 1 1 1 1 1 1 1 1
7 6 6 5 5 4 5 5 5 4 3 2 2 2 3 3 3 3 3 3 3 3 3 3 2 2 2 2 2 2 1 1 1 1 1 1 1 1 0 0 0 0 0 0 0 0 -0 -0 -0
6 5 5 5 4 4 3 4 4 3 3 3 2 2 2 3 3 3 3 3 3 3 2 2 2 2 2 1 1 1 1 1 1 0 0 0 0 -0 -0 -0 -0 -0 -0 -0 -0 -1 -1 -1 -1
5 5 4 3 3 4 4 3 4 3 3 3 3 2 2 3 3 3 3 3 2 2 2 1 1 1 1 1 0 0 0 0 0 -0 -0 -0 -0 -1 -1 -1 -1 -1 -1 -1 -1 -1 -1 -1 -1
5 5 5 5 4 4 3 3 4 3 2 2 2 2 2 3 2 2 2 2 2 2 1 1 1 1 0 0 0 -0 -0 -0 -1 -1 -1 -1 -1 -1 -1 -1 -1 -1 -2 -2 -2 -2 -2 -2 -2
4 5 5 5 5 4 3 3 3 2 1 1 2 2 2 2 2 2 2 1 1 1 1 1 0 0 -0 -0 -0 -1 -1 -1 -1 -1 -1 -1 -1 -1 -2 -2 -2 -2 -2 -2 -2 -3 -3 -3 -2
3 3 4 3 3 3 3 2 2 1 1 0 0 1 1 1 1 1 1 1 1 1 0 0 -0 -0 -1 -1 -1 -1 -1 -1 -2 -2 -2 -2 -2 -2 -2 -2 -2 -2 -3 -3 -3 -3 -3 -3 -3
3 3 2 3 4 4 3 2 3 2 1 0 -1 -1 0 1 1 1 0 0 -0 -0 -0 -0 -1 -1 -1 -1 -1 -2 -2 -2 -2 -2 -2 -3 -3 -3 -3 -3 -3 -3 -3 -3 -3 -3 -3 -3 -3
2 2 2 2 3 3 3 4 2 1 1 -0 -1 -0 -0 0 0 0 -0 -0 -1 -1 -1 -1 -1 -2 -2 -2 -2 -2 -2 -3 -3 -3 -3 -3 -3 -3 -3 -3 -3 -3 -3 -4 -4 -4 -4 -4 -4
2 2 2 3 2 1 2 3 1 -1 -1 -1 -1 -1 -1 -1 -0 -1 -1 -1 -2 -2 -2 -2 -2 -2 -2 -2 -3 -3 -3 -3 -3 -3 -3 -3 -4 -4 -4 -4 -4 -4 -4 -4 -4 -4 -4 -5 -5
Wind_Speed
6 3 3 4 6 5 2 3 2 1 1 1 2 4 6 4 3 3 0 1 2 2 3 2 4 6 7 8 10 11 12 12 12 13 13 13 14 14 14 15 15 15 15 16 16 16 16 16 15
2 2 5 5 5 2 4 4 3 3 3 4 3 4 4 2 1 1 0 2 2 3 3 3 5 6 7 8 10 10 11 12 12 13 13 14 14 14 14 14 14 15 15 15 15 15 15 16 15
1 4 5 5 4 6 5 4 4 2 3 3 3 3 2 2 1 1 1 1 3 4 5 5 6 7 8 8 9 11 11 12 12 13 13 13 13 14 14 14 14 14 14 14 15 15 15 15 15
3 5 5 4 3 4 4 2 4 5 2 3 4 3 1 2 0 0 2 4 5 5 6 5 7 8 8 9 10 11 12 12 12 13 13 13 13 13 14 14 14 14 13 14 14 14 14 14 15
4 5 4 1 3 3 2 2 5 4 3 1 3 3 1 2 2 3 4 5 5 5 7 6 8 9 10 10 11 11 12 12 12 12 13 13 13 13 13 13 13 13 13 13 14 14 14 14 14
5 5 4 4 5 2 2 3 4 3 3 3 4 4 2 1 3 4 5 5 6 6 7 8 8 10 11 11 12 12 12 12 12 12 13 13 13 13 13 13 13 13 13 13 13 13 13 14 14
5 5 4 5 3 4 3 3 5 5 4 4 4 5 2 1 2 4 5 6 7 8 8 9 9 9 10 11 12 12 12 12 12 12 13 13 13 13 13 13 13 13 13 13 13 13 14 14 14
5 5 3 3 5 5 3 3 2 4 4 2 4 6 4 3 4 5 5 6 6 7 8 8 9 10 11 10 11 12 12 12 12 12 13 13 13 13 13 13 13 13 13 13 13 13 13 14 13
4 4 4 6 7 5 4 3 1 2 4 2 0 2 2 8 8 7 5 4 4 5 6 7 8 9 9 10 10 11 11 11 12 11 12 12 12 12 12 13 13 13 13 13 13 13 13 13 13
4 4 7 4 5 4 4 4 5 4 2 2 1 2 6 8 8 8 6 5 4 3 3 5 6 7 8 8 9 10 10 10 11 11 11 11 11 11 11 12 13 13 13 12 13 13 13 12 11
3 5 3 2 2 3 3 2 3 6 4 7 7 8 9 8 8 7 6 5 4 3 3 4 5 7 7 7 8 8 8 9 10 11 11 10 10 10 11 11 11 12 12 12 11 12 12 11 10
3 2 2 1 2 3 4 4 3 4 5 3 7 10 11 10 9 8 7 5 4 4 3 3 5 6 7 7 7 8 8 8 9 9 10 9 8 9 9 9 10 10 10 10 10 9 10 11 11
2 2 0 1 3 3 3 2 3 4 3 4 8 10 10 10 8 6 5 5 4 4 3 3 5 5 6 7 6 7 7 8 8 8 9 9 8 7 7 8 9 9 9 9 8 8 9 9 9
2 2 1 0 1 1 3 2 2 5 4 6 8 8 8 8 7 5 5 5 5 4 4 3 4 5 6 6 6 7 7 7 8 8 8 8 8 7 6 7 8 8 9 8 7 7 6 6 7
2 1 1 2 2 2 2 4 6 5 7 7 7 6 6 6 6 7 7 6 5 5 4 4 4 5 6 6 6 7 7 7 7 7 8 8 7 7 6 6 6 7 8 8 7 7 6 5 6
2 1 3 3 3 2 4 9 4 5 8 7 6 6 6 5 6 5 5 5 5 5 5 4 4 5 5 6 6 6 7 7 7 7 7 7 7 7 7 6 5 6 7 7 5 4 3 4 4
1 3 5 4 3 2 5 8 3 4 8 7 7 7 6 5 5 5 5 5 5 5 5 5 4 5 4 6 6 6 7 6 6 6 7 6 6 7 6 5 6 6 6 6 5 4 3 3 4
5 5 5 6 2 3 5 9 6 5 7 8 7 7 7 7 7 6 5 5 5 5 5 5 5 4 4 5 5 5 6 6 6 6 6 6 5 6 6 5 6 6 5 4 4 3 3 2 3
4 5 6 5 2 4 8 11 10 6 7 8 8 8 9 8 5 4 5 5 5 5 5 5 4 4 4 3 2 2 1 2 3 4 5 5 6 5 5 5 5 5 3 3 3 2 3 3 3
3 5 6 4 1 4 6 10 9 7 8 9 11 11 10 7 4 5 5 6 6 6 5 5 5 4 4 3 2 1 2 1 2 3 4 5 5 5 4 4 4 4 3 3 3 2 2 2 3
6 7 6 5 3 1 4 8 6 5 4 6 7 7 8 10 9 8 7 7 6 6 6 5 5 4 4 4 3 3 2 2 1 1 2 4 4 5 4 4 3 3 2 1 2 2 2 1 2
7 5 5 4 2 5 2 6 7 5 5 6 7 7 8 8 8 8 8 8 7 7 6 5 5 4 4 5 4 4 2 1 1 1 1 3 4 4 4 3 3 3 3 2 2 2 1 0 1
4 1 2 3 4 4 3 5 8 2 6 8 7 8 8 8 8 8 8 8 7 6 6 5 5 4 4 5 5 4 2 1 1 0 1 2 3 3 4 3 3 3 3 3 2 2 2 1 1
3 3 3 2 2 5 6 7 7 5 7 5 5 6 7 7 7 6 5 5 5 5 5 5 5 4 4 5 4 4 4 3 1 0 0 1 1 2 3 3 3 3 3 3 3 2 2 2 1
2 3 2 2 2 7 3 5 9 6 4 5 6 5 5 6 6 6 6 6 6 6 6 6 6 5 5 5 4 4 4 4 3 2 1 1 1 1 2 3 3 3 3 3 3 2 2 2 2
4 5 5 5 5 5 2 7 7 3 2 2 2 2 3 4 5 6 6 6 6 7 7 6 6 5 5 5 4 4 3 3 2 2 2 2 2 2 2 3 3 3 3 3 3 2 2 2 2
4 4 3 3 1 4 6 7 7 2 2 1 0 1 2 3 4 4 4 4 5 6 6 6 6 5 4 5 4 4 3 3 2 2 2 1 2 2 2 3 3 3 3 3 2 2 3 3 3
2 5 4 4 3 5 6 5 5 4 4 2 1 2 2 2 2 3 3 3 4 4 3 4 5 5 4 4 3 3 3 3 2 2 2 2 2 2 3 3 3 3 3 3 2 2 3 3 3
3 3 4 4 4 4 5 7 3 4 4 4 3 2 2 2 3 2 2 2 3 3 3 3 3 4 3 3 3 2 2 2 2 2 3 2 2 2 3 3 3 3 3 3 2 3 3 4 4
4 5 6 5 5 4 4 7 1 1 1 1 1 0 1 2 2 2 2 3 3 2 2 2 2 3 3 3 3 2 2 2 2 2 3 2 2 3 3 3 3 3 3 3 3 4 4 4 5
Wind_Direction
350 31 75 60 59 56 215 238 197 168 167 108 102 116 136 137 150 173 299 354 20 357 341 18 50 55 64 69 74 73 73 70 66 65 65 63 62 61 60 60 58 57 56 56 54 52 52 52 53
1 56 57 63 98 157 249 226 202 198 161 119 71 83 100 111 56 67 12 334 24 27 20 46 66 70 75 73 75 75 74 71 68 66 65 63 62 61 59 59 58 57 57 55 53 52 52 51 50
83 55 82 83 129 184 213 206 191 123 113 116 100 61 107 132 120 174 304 36 49 39 39 55 71 78 83 79 77 77 73 70 68 67 65 64 62 60 59 58 57 57 57 57 54 53 53 52 50
82 52 58 86 196 216 214 207 157 133 99 73 120 103 69 31 188 186 77 70 67 44 43 56 72 75 79 81 79 76 74 70 67 66 65 63 62 60 58 57 56 55 55 55 54 53 53 52 49
59 80 77 77 231 236 227 190 156 148 148 122 129 135 145 9 63 88 90 79 77 53 48 61 77 75 75 78 79 77 74 70 67 65 63 61 61 58 56 55 54 54 53 52 53 51 51 50 49
61 73 113 210 229 242 226 178 148 140 140 135 136 138 179 81 92 93 90 84 73 65 55 58 74 76 75 74 72 73 71 69 66 63 61 59 58 57 54 53 52 52 52 53 51 48 48 48 47
111 111 171 192 207 238 210 149 150 154 159 182 162 145 191 168 120 104 93 84 74 65 59 54 55 66 71 72 70 69 70 68 66 63 61 58 56 55 53 50 49 49 50 49 48 47 46 44 43
125 117 153 192 198 232 177 134 138 158 169 142 146 160 198 186 133 108 93 83 77 64 59 56 56 60 61 63 69 66 67 66 64 62 60 57 53 51 50 47 46 47 47 45 45 44 43 41 39
99 97 203 206 194 214 165 144 103 84 114 105 122 180 160 130 129 116 97 80 74 67 55 58 59 59 62 65 66 64 64 63 61 58 57 54 50 48 46 45 46 45 45 44 43 42 40 39 36
103 174 218 205 189 182 167 167 162 130 133 179 164 102 123 128 139 140 135 133 118 96 70 61 65 65 65 67 66 63 62 63 61 58 57 55 53 49 46 44 43 42 42 43 41 39 37 35 32
144 189 207 206 183 153 152 162 165 151 205 207 191 170 151 146 151 153 153 150 147 128 95 72 74 73 74 72 70 67 64 63 60 57 55 55 54 50 45 43 38 37 37 38 35 35 33 32 29
150 225 200 211 159 156 168 161 173 195 217 197 171 156 155 161 168 169 166 158 141 122 109 82 80 80 78 80 76 72 66 62 58 55 54 56 53 46 43 41 36 35 33 33 33 31 29 28 27
190 208 149 109 97 122 124 168 191 227 228 127 131 150 164 169 170 169 158 144 137 131 124 102 90 87 83 81 77 72 67 65 62 60 56 57 56 46 40 39 38 35 33 32 28 26 24 23 20
178 148 193 198 155 159 157 225 199 236 159 142 152 166 172 173 171 160 155 156 158 154 143 119 100 92 90 82 77 74 69 66 64 60 57 57 57 53 45 37 34 31 29 28 27 22 19 17 18
106 84 321 239 177 179 128 273 223 208 155 159 169 173 172 176 172 177 178 174 170 159 145 135 120 98 93 87 83 78 73 69 61 56 54 55 55 54 50 40 31 25 26 25 25 25 21 17 15
77 78 268 250 171 170 160 255 231 171 163 177 183 181 181 186 186 186 177 167 159 148 143 140 124 107 98 92 88 84 77 71 63 57 52 51 51 53 54 42 27 23 29 27 22 22 12 6 1
52 236 243 264 195 156 191 248 241 171 176 192 196 195 193 193 195 190 177 165 157 152 145 136 121 115 107 97 91 85 78 69 62 56 49 43 46 47 53 44 28 26 30 28 20 13 4 357 353
225 228 239 241 221 172 223 250 250 208 203 210 207 204 202 204 208 191 177 166 155 148 140 135 126 117 105 93 85 75 68 60 57 53 47 40 41 45 48 43 30 31 30 23 17 5 8 357 344
199 212 243 250 199 199 236 255 259 227 213 219 216 212 210 212 204 174 169 160 147 143 141 144 134 126 118 108 115 111 91 62 47 42 44 42 40 44 48 37 30 28 27 15 12 8 7 7 0
213 238 258 275 221 223 261 266 257 227 217 214 214 214 209 198 183 177 167 160 162 163 163 158 154 142 139 137 135 131 128 104 65 45 43 40 41 41 43 36 24 20 20 19 16 24 7 360 15
224 222 238 251 320 263 301 288 257 243 222 218 214 210 202 197 194 188 180 176 172 176 177 175 168 153 147 129 108 89 82 71 57 32 21 20 35 37 34 29 23 16 23 10 358 9 20 357 355
243 227 219 220 247 266 212 279 268 248 250 230 222 210 204 200 195 190 184 181 183 186 177 173 171 159 149 139 142 143 148 159 202 218 327 9 27 24 21 19 15 8 10 358 342 3 327 319 322
216 152 188 215 214 266 218 239 277 260 252 244 226 215 209 201 194 193 190 186 182 177 172 172 167 161 154 151 157 156 155 164 153 116 38 11 9 11 12 7 9 358 352 345 341 339 330 300 263
137 81 63 66 113 259 216 203 271 230 227 241 226 215 209 198 194 190 183 169 170 166 167 166 167 163 160 159 162 166 167 160 147 147 8 351 343 353 0 359 358 349 341 328 321 314 309 301 274
114 102 2 321 256 250 187 210 250 247 234 228 224 219 209 192 183 181 177 176 177 174 175 173 170 169 169 168 174 179 177 175 185 204 219 262 301 311 322 343 337 332 322 316 320 314 296 288 277
190 164 182 223 239 272 228 233 253 264 305 293 230 199 177 172 178 184 185 181 181 181 179 177 176 177 174 178 185 182 173 176 195 212 217 228 248 271 297 322 326 320 315 315 317 305 292 293 279
162 201 174 152 255 270 257 273 293 283 334 358 65 134 187 178 177 180 177 177 178 181 183 181 178 179 183 185 182 178 178 180 192 211 223 229 257 284 300 307 307 310 306 302 297 284 285 284 279
175 153 126 163 220 258 274 262 253 264 266 276 265 228 207 163 158 162 168 170 168 173 173 168 171 179 184 180 182 185 188 193 197 203 221 242 266 281 291 297 295 297 295 286 282 282 283 279 280
157 169 177 176 199 207 264 266 229 225 230 227 236 229 186 170 167 165 160 152 140 136 140 144 156 162 174 180 177 181 190 191 190 214 225 233 255 268 271 277 282 283 286 282 270 269 268 267 275
200 196 169 188 228 213 236 269 338 229 274 212 255 248 152 159 149 135 130 122 123 131 133 138 148 154 173 176 170 182 187 186 204 229 239 239 247 262 266 271 273 279 284 281 263 264 267 261 267
Height
1497 1499 1501 1503 1508 1522 1524 1520 1517 1517 1517 1517 1518 1519 1521 1524 1527 1531 1527 1526 1527 1529 1530 1531 1532 1533 1533 1533 1534 1534 1534 1534 1534 1534 1534 1534 1534 1534 1535 1534 1534 1534 1535 1535 1535 1535 1535 1535 1535
1497 1499 1502 1503 1515 1526 1524 1517 1516 1515 1515 1516 1517 1518 1520 1522 1523 1524 1524 1525 1527 1528 1530 1531 1532 1532 1533 1533 1534 1534 1534 1534 1534 1534 1534 1534 1534 1534 1535 1535 1535 1535 1535 1535 1535 1535 1535 1535 1535
1498 1499 1502 1507 1518 1522 1517 1513 1514 1514 1515 1515 1517 1518 1520 1521 1522 1523 1524 1525 1527 1528 1529 1530 1531 1532 1532 1533 1533 1533 1533 1534 1534 1534 1534 1534 1534 1535 1535 1535 1535 1535 1535 1535 1535 1535 1535 1536 1536
1498 1501 1503 1512 1517 1516 1512 1511 1512 1513 1515 1515 1517 1519 1520 1521 1522 1523 1523 1525 1526 1527 1529 1530 1531 1531 1532 1532 1533 1533 1533 1534 1534 1534 1534 1534 1535 1535 1535 1535 1535 1534 1534 1535 1535 1535 1535 1536 1536
1498 1500 1509 1517 1515 1512 1510 1510 1511 1512 1514 1515 1516 1518 1519 1521 1521 1522 1523 1524 1525 1527 1528 1529 1530 1531 1531 1532 1532 1533 1533 1533 1534 1534 1534 1534 1534 1534 1534 1534 1534 1534 1534 1534 1535 1535 1535 1536 1536
1498 1501 1515 1518 1513 1510 1509 1509 1510 1511 1513 1514 1516 1517 1518 1519 1520 1521 1522 1524 1525 1526 1527 1528 1529 1530 1530 1531 1531 1532 1532 1533 1533 1533 1534 1534 1534 1534 1534 1534 1534 1534 1534 1534 1534 1534 1535 1535 1535
1499 1506 1513 1513 1512 1510 1508 1508 1509 1510 1512 1513 1514 1516 1516 1518 1519 1521 1522 1523 1525 1526 1527 1527 1528 1529 1530 1530 1531 1531 1532 1532 1533 1533 1533 1533 1533 1533 1533 1533 1533 1533 1533 1533 1533 1534 1534 1534 1535
1497 1504 1510 1512 1511 1508 1506 1506 1507 1508 1510 1512 1513 1514 1514 1516 1517 1519 1521 1523 1524 1525 1526 1526 1527 1528 1529 1530 1530 1531 1531 1532 1532 1532 1532 1532 1532 1532 1532 1532 1532 1532 1532 1532 1533 1533 1533 1533 1534
1497 1507 1510 1508 1507 1504 1504 1505 1507 1508 1509 1510 1511 1511 1512 1514 1516 1518 1519 1521 1522 1523 1524 1525 1526 1527 1528 1529 1529 1530 1530 1531 1531 1531 1531 1531 1531 1531 1531 1531 1531 1531 1531 1531 1531 1531 1532 1532 1533
1496 1505 1502 1501 1501 1501 1502 1503 1505 1507 1508 1509 1509 1509 1511 1512 1514 1515 1517 1518 1520 1521 1523 1524 1525 1526 1527 1528 1528 1529 1529 1529 1530 1530 1530 1530 1530 1530 1530 1530 1530 1530 1530 1530 1530 1530 1531 1531 1532
1496 1499 1498 1498 1498 1499 1501 1503 1504 1505 1506 1505 1505 1506 1508 1510 1512 1514 1515 1517 1518 1520 1521 1522 1523 1524 1525 1526 1527 1527 1528 1528 1529 1529 1529 1529 1529 1529 1529 1529 1528 1528 1529 1529 1529 1529 1529 1530 1530
1496 1497 1496 1497 1497 1499 1500 1501 1503 1502 1501 1502 1503 1504 1506 1508 1510 1511 1513 1515 1517 1518 1519 1521 1522 1523 1524 1525 1525 1526 1526 1527 1527 1528 1528 1528 1528 1528 1527 1527 1527 1527 1527 1527 1527 1528 1528 1528 1529
1496 1496 1496 1496 1497 1498 1499 1500 1501 1500 1499 1500 1501 1503 1504 1506 1508 1510 1512 1513 1515 1516 1518 1519 1520 1521 1522 1523 1524 1524 1525 1525 1526 1526 1526 1527 1527 1526 1526 1526 1526 1525 1525 1525 1526 1526 1526 1526 1527
1495 1495 1496 1496 1496 1497 1499 1499 1500 1496 1498 1499 1499 1500 1502 1503 1505 1507 1509 1511 1512 1514 1515 1517 1518 1520 1521 1521 1522 1523 1523 1524 1525 1525 1525 1525 1525 1525 1525 1524 1524 1524 1524 1524 1524 1524 1524 1524 1524
1495 1496 1496 1496 1496 1497 1498 1499 1497 1494 1496 1497 1498 1499 1500 1501 1503 1505 1506 1508 1510 1512 1513 1515 1516 1518 1519 1520 1520 1521 1522 1522 1523 1523 1523 1523 1524 1523 1523 1523 1523 1522 1522 1522 1522 1522 1522 1522 1522
1495 1497 1498 1495 1495 1496 1500 1496 1492 1492 1493 1494 1495 1496 1497 1499 1501 1503 1504 1506 1508 1509 1511 1513 1514 1516 1517 1518 1519 1519 1520 1521 1521 1522 1522 1522 1522 1522 1521 1521 1521 1521 1520 1520 1520 1520 1519 1519 1519
1498 1499 1497 1495 1494 1496 1498 1495 1491 1491 1492 1492 1493 1494 1495 1496 1498 1499 1501 1503 1505 1507 1508 1510 1512 1513 1515 1516 1517 1518 1518 1519 1520 1520 1520 1520 1520 1520 1520 1519 1519 1519 1519 1518 1518 1518 1517 1516 1516
1496 1498 1496 1495 1494 1496 1497 1493 1490 1490 1490 1489 1490 1491 1492 1492 1494 1496 1498 1500 1502 1504 1506 1508 1509 1511 1513 1514 1515 1516 1516 1517 1518 1518 1518 1518 1518 1518 1518 1518 1517 1517 1517 1516 1516 1515 1515 1514 1513
1490 1493 1494 1493 1493 1495 1494 1491 1487 1487 1487 1486 1486 1487 1487 1489 1492 1494 1495 1497 1499 1501 1503 1505 1507 1508 1510 1511 1512 1513 1513 1514 1515 1516 1516 1516 1516 1516 1516 1516 1515 1515 1514 1514 1513 1513 1512 1512 1511
1491 1493 1494 1493 1493 1494 1493 1489 1483 1482 1481 1480 1480 1481 1482 1485 1487 1489 1491 1493 1495 1497 1500 1502 1504 1505 1507 1508 1510 1511 1511 1512 1513 1513 1513 1514 1514 1514 1514 1513 1513 1513 1512 1511 1511 1511 1510 1509 1509
1490 1492 1491 1493 1493 1494 1494 1485 1480 1476 1476 1476 1477 1477 1479 1480 1482 1485 1487 1490 1492 1494 1496 1498 1501 1502 1504 1506 1507 1508 1509 1510 1510 1511 1511 1511 1511 1511 1511 1511 1511 1510 1509 1509 1508 1508 1507 1507 1507
1487 1486 1488 1491 1494 1495 1494 1490 1477 1475 1474 1472 1473 1474 1474 1476 1479 1481 1483 1486 1488 1491 1494 1496 1498 1500 1501 1503 1504 1505 1505 1506 1507 1507 1508 1509 1509 1509 1508 1508 1508 1508 1507 1506 1506 1506 1505 1505 1504
1484 1485 1488 1490 1493 1496 1495 1494 1478 1475 1472 1468 1468 1469 1470 1472 1475 1477 1480 1482 1485 1488 1491 1493 1495 1496 1498 1499 1501 1502 1503 1504 1504 1505 1505 1506 1506 1506 1506 1506 1505 1505 1504 1504 1503 1503 1503 1502 1502
1484 1487 1490 1494 1495 1493 1489 1493 1477 1474 1467 1464 1465 1465 1467 1469 1472 1474 1477 1480 1483 1485 1487 1490 1491 1493 1495 1496 1498 1499 1500 1501 1501 1502 1502 1502 1503 1503 1503 1503 1502 1502 1501 1501 1500 1500 1499 1499 1499
1484 1488 1492 1491 1495 1488 1487 1487 1474 1465 1463 1462 1462 1463 1464 1467 1469 1471 1474 1476 1479 1481 1484 1486 1488 1490 1492 1493 1495 1496 1497 1498 1498 1499 1499 1499 1499 1499 1499 1499 1499 1499 1498 1498 1497 1497 1496 1496 1495
1484 1484 1488 1490 1489 1487 1488 1484 1469 1463 1462 1461 1461 1462 1463 1464 1466 1469 1471 1473 1476 1478 1481 1483 1485 1486 1488 1490 1492 1493 1494 1494 1495 1496 1496 1495 1495 1495 1495 1495 1495 1495 1494 1494 1494 1493 1493 1492 1491
1484 1485 1485 1490 1494 1494 1484 1479 1469 1461 1461 1461 1461 1461 1462 1463 1465 1467 1469 1471 1473 1475 1477 1480 1481 1483 1485 1487 1488 1489 1490 1491 1492 1492 1492 1492 1492 1491 1492 1492 1491 1491 1490 1490 1490 1489 1489 1488 1487
1481 1483 1489 1488 1487 1485 1477 1477 1468 1462 1461 1461 1461 1460 1461 1463 1464 1466 1468 1469 1471 1473 1475 1477 1478 1479 1481 1483 1484 1485 1486 1487 1488 1488 1488 1488 1488 1488 1488 1487 1487 1487 1486 1486 1485 1485 1485 1484 1484
1482 1484 1482 1485 1485 1485 1482 1469 1461 1460 1459 1460 1460 1460 1460 1462 1463 1464 1466 1467 1469 1471 1472 1473 1475 1476 1477 1479 1480 1481 1482 1483 1484 1484 1484 1484 1484 1484 1483 1483 1483 1482 1482 1481 1481 1480 1480 1479 1479
1477 1478 1481 1482 1483 1486 1482 1468 1460 1460 1459 1459 1460 1460 1460 1461 1462 1463 1464 1465 1467 1468 1469 1470 1472 1473 1474 1475 1476 1478 1478 1479 1480 1480 1480 1480 1480 1479 1479 1479 1478 1478 1477 1477 1476 1476 1475 1475 1474